Theta_e
317 320 321 319 318 324 323 328 338 333 337 340 341 340 340 337 337 338 340 342 343 344 340 336 337 338 338 336 336 341 342 344 346 345 345 344 345 341 330 316 313 313 313 313
321 320 319 316 316 318 319 322 330 322 321 340 340 342 339 336 338 337 339 342 344 346 343 342 341 340 340 339 339 342 345 346 346 345 345 345 342 331 317 313 312 313 313 314
321 320 318 319 318 319 319 320 321 322 329 333 332 331 333 335 337 339 339 341 344 346 346 344 344 343 343 342 343 346 347 346 345 344 345 343 336 324 315 313 313 313 314 314
321 320 320 320 321 321 322 320 321 326 329 327 330 326 336 337 338 338 340 341 343 346 347 346 344 344 344 345 346 346 347 346 344 344 343 341 339 326 315 314 314 314 314 315
322 320 321 321 322 321 323 320 321 326 327 328 334 332 330 335 339 339 339 341 342 344 346 347 346 345 346 347 347 347 346 343 344 345 343 341 335 321 315 315 315 315 315 315
321 318 320 322 321 320 319 322 322 321 324 325 327 333 326 330 337 337 338 340 340 343 345 347 347 346 347 346 345 343 333 333 343 344 341 338 334 320 315 315 316 316 316 316
321 321 321 321 322 320 321 326 325 325 325 325 322 329 328 330 326 331 338 340 340 341 343 346 346 342 346 344 340 334 331 328 333 343 340 337 330 321 315 316 316 316 316 316
322 321 321 322 323 325 324 327 325 325 325 324 321 325 325 326 323 328 331 334 332 333 341 344 343 342 345 341 337 336 330 329 332 340 339 335 328 323 316 316 316 316 317 317
322 321 320 321 322 323 322 324 322 325 321 323 324 325 326 328 330 330 337 337 334 330 336 342 341 342 345 343 338 335 332 330 331 332 332 332 326 322 317 317 316 316 318 318
324 323 321 322 322 320 323 321 326 325 327 326 326 327 327 332 332 332 336 337 337 336 339 339 338 340 343 341 339 333 330 331 327 330 328 329 327 318 317 317 316 317 318 319
321 325 323 322 324 325 323 323 323 326 326 327 328 327 330 332 334 333 333 336 337 338 338 338 337 338 340 339 338 335 330 328 326 329 329 329 322 317 317 316 316 318 319 320
321 325 325 323 321 322 323 326 328 327 329 325 327 327 325 329 330 331 332 334 333 333 337 337 337 338 339 337 340 337 332 326 321 326 327 324 319 317 317 317 318 319 321 322
323 326 327 327 324 323 325 324 325 326 327 329 327 327 326 325 325 326 329 330 332 334 335 336 336 336 337 337 340 339 332 326 321 321 322 321 320 317 318 319 319 321 322 322
323 326 330 328 327 325 326 325 323 327 330 328 327 327 328 328 329 329 328 328 328 331 334 335 335 335 336 337 337 336 331 326 321 320 321 320 317 318 319 320 321 322 321 320
328 330 325 325 324 322 325 324 325 326 328 329 327 327 328 330 328 328 327 325 324 324 327 328 330 333 334 334 334 335 333 327 322 320 317 317 319 319 320 321 322 321 318 314
323 328 326 326 325 325 326 327 326 326 326 326 327 328 327 326 325 324 325 326 325 325 323 324 326 328 331 334 334 333 332 327 320 317 316 319 319 320 321 322 322 320 314 310
328 328 329 327 326 327 328 327 327 327 327 327 328 328 327 326 326 326 326 326 325 324 324 324 324 324 328 331 331 332 331 327 320 318 318 319 321 322 322 322 320 316 310 309
327 327 327 327 327 328 325 325 326 327 328 327 327 326 326 326 326 325 324 324 325 324 323 323 324 324 326 328 329 328 329 328 322 319 320 321 323 323 322 320 316 310 309 305
324 327 327 328 327 325 324 326 326 327 327 327 327 327 326 325 325 326 325 324 324 324 324 324 325 325 325 327 327 327 327 327 323 321 322 323 324 323 322 317 312 309 306 303
324 325 329 327 330 329 326 325 325 326 328 326 326 327 327 325 327 327 324 323 324 324 325 325 326 326 326 326 326 325 326 326 324 322 323 324 324 323 319 311 309 307 303 303
326 325 328 327 328 325 325 325 323 328 326 326 325 325 325 327 327 324 323 323 324 324 325 325 326 327 327 326 325 324 325 326 324 323 324 324 323 319 312 309 307 304 302 298
326 328 327 327 328 328 322 324 327 328 326 327 327 326 326 326 324 324 324 324 324 324 324 325 326 326 326 325 324 323 324 324 323 324 325 322 317 311 309 308 304 301 297 296
323 324 325 326 325 325 324 326 323 323 325 325 325 327 325 327 327 326 325 324 324 324 325 325 326 326 325 324 323 323 324 324 324 324 321 315 310 309 308 304 300 298 299 297
319 320 321 323 322 321 321 324 324 325 326 325 325 325 326 326 326 325 325 324 324 325 325 326 326 325 324 323 323 324 324 324 324 320 313 310 310 308 304 300 298 300 300 300
320 319 323 324 322 324 324 323 320 320 319 318 318 319 320 322 321 322 324 325 324 323 324 325 326 325 324 324 324 324 324 323 321 316 314 311 308 307 302 298 300 301 301 301
314 318 320 323 317 316 316 315 313 314 314 316 318 319 317 318 319 321 322 324 323 323 323 324 325 325 325 325 323 321 322 320 316 316 311 309 308 305 300 300 301 302 302 302
Wind_Speed
3 4 6 3 1 2 7 5 13 5 6 10 18 19 12 9 13 17 20 19 20 21 22 25 25 24 25 25 29 29 27 24 20 18 15 14 13 10 9 10 11 11 10 10
3 7 4 3 2 2 3 5 7 3 1 10 9 19 12 13 16 23 22 23 22 20 23 25 24 23 24 23 26 27 25 21 20 18 16 15 14 13 12 13 13 12 11 10
7 3 6 6 5 5 3 6 5 5 4 5 1 10 13 11 16 14 23 24 25 27 26 27 27 25 24 24 26 26 24 23 20 19 17 16 16 15 16 16 14 13 10 8
5 5 5 7 6 10 8 15 7 11 9 3 9 5 5 8 11 19 22 27 29 30 29 29 32 31 30 27 25 23 21 19 19 18 17 13 12 16 18 17 15 12 9 8
3 7 9 6 6 13 7 9 14 10 7 4 8 5 3 1 11 17 25 30 32 34 35 35 33 34 29 27 23 20 18 15 15 20 17 14 15 18 19 18 15 12 9 6
6 2 4 4 3 8 10 6 5 4 4 6 7 8 7 5 10 17 24 27 33 31 32 31 31 26 29 28 22 7 3 11 20 22 21 19 18 21 22 19 16 11 8 5
3 5 3 5 4 3 7 7 5 7 7 8 2 6 10 7 10 10 14 22 26 26 29 30 31 29 35 29 21 20 9 24 24 26 25 22 21 19 19 18 14 10 6 4
4 7 7 6 9 5 8 4 5 7 7 9 4 6 6 5 6 8 10 14 15 21 24 27 32 37 41 34 33 29 17 26 28 29 29 26 23 20 19 16 12 8 5 3
5 5 2 3 2 2 5 5 2 4 1 3 3 4 9 7 8 9 12 12 15 14 18 24 29 39 45 43 34 24 20 27 29 28 30 28 25 20 20 18 13 9 6 4
6 4 1 1 3 6 2 8 3 1 5 9 4 3 5 5 10 9 10 11 9 5 12 19 27 35 44 42 35 22 24 24 29 30 30 29 24 21 21 18 14 11 7 6
5 4 5 3 4 5 4 3 3 1 2 10 12 8 7 11 9 8 10 11 10 9 12 18 23 26 36 38 38 32 27 31 30 29 31 29 26 24 22 18 14 11 9 8
5 3 4 11 0 1 2 4 7 7 6 2 4 8 5 9 9 11 14 12 13 13 13 16 20 23 31 36 38 31 29 29 27 30 31 30 27 24 22 19 15 12 10 7
8 3 3 3 3 2 5 6 5 3 2 8 9 6 4 8 10 13 15 15 17 16 16 17 19 24 30 34 40 36 33 30 29 30 31 30 28 25 22 18 15 12 11 9
12 4 5 8 4 2 4 5 7 10 7 12 11 14 7 10 11 10 14 13 13 16 18 19 22 26 28 34 38 42 36 33 32 32 32 31 29 24 21 19 17 14 11 10
2 8 7 7 7 5 8 10 9 12 14 11 15 10 13 12 7 9 10 9 11 16 20 27 30 30 29 31 36 44 40 37 35 35 34 31 27 23 21 21 17 14 11 7
3 8 7 8 10 11 13 12 9 12 11 11 13 12 13 10 9 11 14 14 17 20 24 27 29 33 36 36 37 40 44 40 37 36 33 29 27 24 23 21 18 14 8 5
3 6 7 15 9 10 13 14 17 14 11 12 15 16 4 8 11 13 14 14 17 20 21 24 29 32 33 33 36 38 43 42 39 37 35 33 31 29 26 21 18 13 8 5
4 3 3 11 5 17 9 4 10 17 18 16 14 9 14 15 11 9 12 14 18 20 19 19 18 19 23 29 32 32 37 43 41 39 37 37 34 29 26 22 16 10 7 5
12 4 5 7 12 16 6 5 8 10 15 13 12 13 16 10 5 12 16 16 16 19 18 16 15 15 18 22 26 30 30 43 41 40 40 36 32 29 25 21 15 11 7 7
11 8 10 5 7 17 6 15 17 4 15 13 17 14 12 6 8 8 9 5 6 7 7 9 8 8 11 16 22 25 29 42 41 41 40 36 32 29 25 19 14 10 8 10
5 7 15 13 12 10 5 4 7 11 10 3 4 9 6 6 9 5 8 10 7 6 8 8 9 8 8 12 18 25 34 41 40 38 36 34 31 27 21 18 13 10 11 11
12 7 6 7 8 13 6 4 9 2 2 2 4 4 6 9 13 14 13 11 11 12 10 10 10 9 9 15 23 29 35 37 36 37 35 34 30 26 20 14 13 14 14 13
16 13 10 8 7 3 4 2 3 4 5 5 10 7 9 10 11 13 14 14 13 12 12 11 9 8 11 18 24 30 32 31 32 32 35 33 29 22 15 14 17 20 17 14
4 2 4 5 8 7 7 5 3 3 4 6 7 9 10 11 12 15 16 15 12 11 10 9 9 12 17 23 24 24 27 30 32 32 31 28 22 19 17 18 22 21 18 15
4 7 1 4 1 2 3 4 6 8 11 14 14 13 14 13 15 15 15 13 12 11 10 10 11 16 22 25 24 24 26 27 29 31 27 24 21 17 19 23 23 19 15 13
8 4 2 2 9 14 19 19 18 19 20 17 14 14 16 17 20 18 16 13 11 11 11 12 16 24 30 31 29 28 27 28 27 28 31 28 23 21 25 26 22 18 15 13
Wind_Direction
25 235 229 234 249 171 127 144 191 207 180 197 224 244 222 216 219 218 209 208 211 214 218 223 224 229 233 229 224 219 216 212 218 230 231 224 212 195 179 164 148 132 117 101
172 237 234 130 106 82 121 134 192 293 116 212 235 251 252 232 230 221 218 214 213 211 216 217 218 221 223 223 215 211 213 218 232 238 238 225 201 179 166 155 143 133 119 107
218 133 139 180 157 165 213 203 182 239 104 182 97 264 248 227 219 222 223 223 218 214 213 214 213 213 213 214 210 212 219 226 238 245 224 203 187 174 165 157 150 137 126 109
230 174 191 180 207 194 204 216 191 174 175 208 193 259 235 233 225 221 224 220 220 216 216 218 213 213 214 210 209 216 223 231 244 235 233 219 214 186 174 163 155 146 131 103
216 180 184 217 227 184 222 180 185 186 182 178 187 245 224 215 220 228 226 225 224 221 215 214 213 213 206 207 207 210 221 234 239 237 225 216 199 193 180 169 164 153 133 103
241 208 223 233 170 187 145 118 105 108 167 228 216 237 236 204 221 234 236 236 234 228 223 215 213 202 202 207 205 175 3 329 253 233 227 208 210 200 187 177 173 161 142 115
225 232 231 185 199 134 186 177 191 220 219 250 146 214 254 246 239 255 258 245 247 240 229 215 202 194 204 198 161 154 296 276 247 230 219 207 209 210 197 189 177 168 153 124
210 232 199 174 218 216 191 213 199 225 232 252 156 218 236 276 248 259 275 277 264 247 236 216 203 201 205 190 183 217 259 235 227 216 214 208 205 204 197 194 185 183 174 164
183 254 278 228 162 220 152 199 77 122 78 242 207 240 271 228 244 257 268 283 279 265 225 209 205 211 210 204 203 224 255 217 214 212 212 207 204 201 199 195 193 196 192 208
198 259 233 65 108 54 193 138 153 196 230 249 211 238 240 204 222 219 251 257 281 253 200 205 209 212 211 203 206 221 225 216 211 208 207 206 206 199 198 199 200 203 210 233
146 220 210 260 210 211 153 188 71 123 251 255 262 252 209 213 213 232 244 251 260 241 213 211 220 217 209 207 213 211 215 205 205 205 204 204 200 196 197 200 205 212 223 238
175 162 234 243 65 315 202 218 189 242 226 235 282 252 191 220 212 209 239 245 248 244 222 215 221 217 207 211 216 213 210 208 204 205 200 198 199 198 196 202 209 215 225 249
180 193 232 226 170 155 223 194 173 110 87 207 239 251 189 229 234 232 238 238 242 239 231 225 221 219 212 217 216 217 213 208 205 203 200 199 196 194 199 206 214 219 232 252
154 159 198 234 236 159 235 226 216 207 226 243 236 257 239 231 232 245 249 251 250 255 249 241 236 235 225 218 215 214 209 207 204 201 200 199 195 196 205 211 215 226 233 253
230 209 194 241 248 224 240 235 206 222 247 241 256 225 245 252 266 246 234 248 252 259 254 250 250 243 230 219 215 212 210 206 202 199 198 197 196 200 214 211 215 225 230 258
179 239 196 234 224 229 245 240 225 226 238 250 258 258 244 260 257 259 261 258 248 258 264 259 255 249 241 228 222 214 207 202 198 196 194 193 200 209 209 211 217 221 220 254
244 199 183 240 227 235 249 224 230 234 231 238 247 260 255 243 238 249 259 266 270 278 281 277 269 263 252 236 228 222 210 201 196 195 194 200 205 211 207 208 213 204 216 270
224 209 226 247 183 241 248 198 241 243 246 239 256 249 250 254 259 261 267 275 287 287 288 289 283 271 252 242 231 219 214 200 197 195 197 202 202 202 201 204 194 200 218 239
215 202 231 233 231 254 266 186 199 207 240 239 244 252 257 244 267 267 268 276 280 280 284 289 288 273 259 244 231 217 206 200 196 196 199 199 202 201 200 191 187 198 214 188
199 227 235 187 233 250 258 232 226 223 258 248 240 251 242 200 252 277 272 302 322 310 299 306 302 275 248 229 225 214 205 198 197 197 198 199 200 201 188 183 185 198 189 187
179 209 226 230 243 255 228 230 163 219 272 343 287 271 224 213 265 298 297 298 302 306 301 303 296 272 241 220 207 200 197 199 197 197 197 198 192 184 178 180 188 184 181 189
220 198 200 213 236 258 185 174 225 331 354 309 331 334 312 312 305 306 298 286 290 294 293 289 275 256 229 201 191 191 191 194 195 196 195 187 174 171 174 186 179 172 167 167
240 235 243 214 237 124 165 146 297 272 277 295 305 321 315 308 313 314 303 293 284 274 265 260 255 237 207 194 194 189 193 195 191 190 182 169 168 171 175 179 173 158 153 147
209 34 234 218 212 231 258 276 337 13 2 353 333 316 317 315 317 311 304 301 286 272 265 255 238 211 192 186 183 191 187 182 183 173 165 167 169 172 171 170 166 161 156 147
324 317 267 252 242 281 120 86 34 354 332 325 324 323 322 323 323 320 310 303 278 259 249 238 218 198 181 173 171 174 171 171 174 169 172 182 179 178 174 169 169 170 165 163
266 285 274 275 316 311 288 291 304 304 303 304 300 301 298 301 303 305 304 293 281 269 250 227 208 188 175 170 170 178 178 172 174 184 182 181 186 181 173 173 173 175 177 176